Location: Newark
(40.7830°N, 8.7430°E)
Time: 18:24:40
(UTC+00:00)

OTV 5 (USA 277) - Visible Passes

Search period start: 15 October 2019 00:00
Search period end: 25 October 2019 00:00
Orbit: 310 x 324 km, 54.5° (Epoch: 08 October)

Date Brightness Start Highest point End Pass type
(mag) Time Alt. Az. Time Alt. Az. Time Alt. Az.
16 Oct ? 04:08:35 10° NNE 04:08:41 10° NNE 04:08:47 10° NNE visible
17 Oct ? 04:21:38 10° NNW 04:23:34 17° NNE 04:25:30 10° ENE visible
18 Oct ? 04:36:01 12° NNW 04:38:19 36° NE 04:40:52 10° ESE visible
19 Oct ? 03:19:37 10° NE 03:19:37 10° NE 03:19:38 10° NE visible
19 Oct ? 04:50:31 13° NW 04:52:54 75° SW 04:55:37 10° SE visible
20 Oct ? 03:34:13 18° ENE 03:34:13 18° ENE 03:35:23 10° E visible
20 Oct ? 05:05:08 10° WNW 05:07:20 23° SW 05:09:36 10° S visible
21 Oct ? 03:48:58 27° ESE 03:48:58 27° ESE 03:50:26 10° ESE visible
22 Oct ? 04:03:51 19° SSE 04:03:51 19° SSE 04:04:50 10° SSE visible
